SCP
0 0 0 0 0 0 0 0 0 0 0 0 1 1 1 1 1 1 2 2 2 2 2 2 1 1 1 1 1 1 1 1 1 1 1 1 1 1 1 1 0 1 1 1
0 0 0 0 0 0 0 0 0 0 0 0 1 1 1 1 1 2 2 2 2 2 2 2 1 1 1 1 1 1 1 1 1 1 1 1 1 1 1 1 1 1 1 1
0 0 0 0 0 0 0 0 0 0 0 1 1 1 1 1 1 2 2 2 2 2 2 2 1 1 1 1 1 1 1 1 1 1 1 0 0 1 1 1 1 1 1 1
0 0 0 0 0 0 0 0 0 0 1 1 1 2 2 2 2 2 2 2 2 2 2 2 2 1 1 1 1 1 1 1 1 1 0 0 0 1 1 1 1 1 1 1
0 0 0 0 0 0 0 0 0 1 1 1 2 2 2 2 2 2 2 2 2 2 2 2 2 1 1 1 1 1 1 1 1 1 0 0 1 1 1 1 1 1 1 1
0 0 0 0 0 0 0 0 1 1 1 2 2 2 2 2 2 2 2 2 2 2 2 2 2 1 1 1 1 1 1 1 1 1 0 0 0 1 1 1 1 1 0 0
0 0 0 0 0 0 1 1 1 1 2 2 2 2 2 2 2 2 2 2 2 2 2 2 2 1 1 1 1 1 1 1 1 0 0 0 0 0 0 0 0 0 0 0
0 0 0 1 1 1 1 1 2 2 2 2 2 2 2 2 2 2 2 2 2 2 2 2 1 1 1 1 1 1 1 1 1 0 0 0 0 0 0 0 0 0 0 0
0 0 1 1 1 1 1 1 1 1 2 2 2 2 1 1 1 1 1 1 1 2 2 1 1 1 1 1 1 1 1 1 1 0 0 0 0 0 0 0 0 0 0 0
0 1 1 1 1 1 1 1 1 1 1 1 1 1 1 1 1 1 1 1 1 1 1 1 1 1 1 1 1 1 1 1 1 0 0 0 0 0 0 0 0 0 0 0
1 1 1 1 1 1 1 1 1 1 1 1 1 1 1 1 1 1 1 1 1 1 1 1 1 1 1 1 1 1 1 1 1 0 0 0 0 0 0 0 0 0 0 0
1 1 1 0 0 0 1 1 1 1 1 1 1 1 1 1 1 1 1 1 1 1 1 1 1 1 1 1 1 1 1 1 0 0 0 0 0 0 0 0 0 0 0 0
0 0 0 0 0 0 0 0 0 0 1 1 1 1 1 1 1 0 0 0 0 0 1 1 1 1 1 1 1 1 1 0 0 0 0 0 0 0 0 0 0 0 0 0
0 0 0 0 0 0 0 0 0 0 0 0 0 1 0 0 0 0 0 0 0 0 0 0 1 1 1 1 1 0 0 0 0 0 0 0 0 0 0 0 0 0 0 0
0 0 0 0 0 0 0 0 0 0 0 0 0 0 0 0 0 0 0 0 0 0 0 0 0 1 1 0 0 0 0 0 0 0 0 0 0 0 0 0 0 0 0 0
0 0 0 0 0 0 0 0 0 0 0 0 0 0 0 0 0 0 0 0 0 0 0 0 0 0 0 0 0 0 0 0 0 0 0 0 0 0 0 0 0 0 0 0
0 0 0 0 0 0 0 0 0 0 0 0 0 0 0 0 0 0 0 0 0 0 0 0 0 0 0 0 0 0 0 0 0 0 0 0 0 0 0 0 0 0 0 0
0 0 0 0 0 0 0 0 0 0 0 0 0 0 0 0 0 0 0 0 0 0 0 0 0 0 0 0 0 0 0 0 0 0 0 0 0 0 0 0 0 0 0 0
0 0 0 0 0 0 0 0 0 0 0 0 0 0 0 0 0 0 0 0 0 0 0 0 0 0 0 0 0 0 0 0 0 0 0 0 0 0 0 0 0 0 0 0
0 0 0 0 0 0 0 0 0 0 0 0 0 0 0 0 0 0 0 0 0 0 0 0 0 0 0 0 0 0 0 0 0 0 0 0 0 0 0 0 0 0 0 0
0 0 0 0 0 0 0 0 0 0 0 0 0 0 0 0 0 0 0 0 0 0 0 0 0 0 0 0 0 0 0 0 0 0 0 0 0 0 0 0 0 0 0 0
0 0 0 0 0 0 0 0 0 0 0 0 0 0 0 0 0 0 0 0 0 0 0 0 0 0 0 0 -0 0 0 0 0 0 0 0 0 0 0 0 0 0 0 0
0 0 0 0 0 0 0 0 0 0 0 0 0 0 0 0 0 0 0 0 0 0 0 0 0 0 0 0 0 0 0 0 0 0 0 0 0 0 0 0 0 0 0 0
0 0 0 0 0 0 0 0 0 0 0 0 0 0 0 0 0 0 0 0 0 0 0 0 0 0 0 0 0 0 0 0 0 0 0 0 0 0 0 0 0 0 0 0
0 0 0 0 0 0 0 0 0 0 0 0 0 0 0 0 0 0 0 0 0 0 0 0 0 0 0 0 0 0 0 0 0 0 0 0 0 0 0 0 0 0 0 0
0 0 0 0 0 0 0 0 0 0 0 0 0 0 0 0 0 0 0 0 0 0 0 0 0 0 0 0 0 0 0 0 0 0 0 0 0 0 0 0 0 0 0 0
0 0 0 0 0 0 0 0 0 0 0 0 0 0 0 0 0 0 0 0 0 0 0 0 0 0 0 0 0 0 0 0 0 0 0 0 0 0 0 0 0 0 0 0
Wind_Speed
16 17 13 12 13 15 15 14 13 9 7 4 5 6 7 8 9 11 11 10 9 8 7 6 6 5 5 5 5 4 5 4 4 4 4 4 4 4 4 4 5 4 4 4
16 18 18 16 14 14 15 13 14 12 9 3 5 6 7 9 11 11 11 10 9 9 8 7 6 5 5 4 4 4 4 4 4 5 4 4 4 4 5 5 5 5 5 5
14 16 18 19 15 14 13 13 13 11 6 5 6 6 5 6 9 10 10 10 9 8 7 7 6 5 5 4 4 4 4 5 5 5 5 4 5 5 5 5 6 7 6 7
13 15 19 12 12 13 13 11 8 4 3 3 8 9 5 5 8 10 10 9 8 8 8 8 7 6 5 5 4 4 5 5 5 5 5 5 5 5 5 5 6 6 7 7
11 15 16 14 11 10 10 8 6 4 2 5 9 9 5 5 7 9 9 8 7 7 7 7 6 6 5 5 4 4 5 5 5 6 6 5 5 5 5 6 6 7 8 8
12 14 13 8 6 7 7 6 2 2 2 6 7 5 5 7 7 9 9 8 7 7 7 6 5 5 5 5 5 4 4 5 5 5 6 6 6 6 6 6 7 8 8 8
15 15 12 7 3 3 6 1 6 6 5 6 4 5 9 10 9 9 7 7 7 7 6 5 4 4 5 4 4 4 5 6 6 6 6 6 7 6 7 7 8 9 9 8
14 16 11 6 2 0 5 7 8 10 10 11 11 11 11 10 8 7 7 7 6 6 5 4 4 4 4 4 4 4 5 6 7 6 6 6 7 7 7 8 9 9 9 9
7 5 4 7 7 6 6 6 6 8 9 10 9 9 9 8 6 6 6 5 5 5 5 5 4 4 4 4 4 6 6 6 7 7 7 6 7 8 7 7 7 7 7 8
2 4 5 6 6 6 6 6 6 6 6 6 6 7 8 6 6 5 5 5 4 5 5 4 4 4 4 4 5 6 7 7 7 8 8 7 5 5 5 5 6 7 7 8
3 4 4 3 4 5 5 6 6 5 6 5 6 6 6 5 5 5 5 4 5 4 4 4 4 4 3 4 5 6 7 7 8 8 8 8 8 7 6 5 4 6 7 7
1 2 2 4 4 4 4 5 5 5 6 6 6 5 5 5 4 5 5 5 5 5 4 4 4 3 3 3 5 6 7 7 7 7 7 8 9 10 17 13 15 14 13 10
2 3 3 4 3 4 4 4 5 5 5 6 5 5 5 5 5 5 5 5 5 4 4 5 4 4 4 4 5 6 7 7 6 7 8 8 8 9 10 12 17 17 15 14
3 1 1 2 3 3 3 4 5 5 5 5 5 5 6 6 6 6 5 5 5 5 5 5 5 5 5 5 7 7 8 8 8 7 8 8 8 8 8 9 9 8 10 13
1 1 2 2 3 4 4 4 5 5 5 6 6 6 6 6 6 6 5 5 5 5 5 5 6 6 5 6 7 8 7 7 7 7 8 8 8 9 9 9 9 8 7 7
2 2 3 3 3 3 3 3 4 5 5 6 6 6 6 7 7 6 6 5 5 6 6 6 7 6 6 7 7 7 7 11 9 8 8 8 8 8 9 9 9 8 7 7
4 5 5 4 4 4 4 3 4 5 6 7 7 7 8 8 7 7 6 6 7 7 6 6 7 7 7 7 7 7 8 9 11 8 7 7 7 8 8 9 8 8 7 7
5 5 4 4 4 4 5 5 6 6 7 8 8 8 8 7 7 7 7 7 8 7 6 6 7 7 7 7 7 7 7 7 6 7 7 7 7 8 8 8 9 9 8 8
5 5 3 3 4 5 6 7 7 8 8 8 8 8 8 8 8 8 8 7 7 7 6 6 7 7 7 7 7 6 7 8 7 7 7 8 7 7 8 8 7 8 8 7
3 3 4 6 7 7 8 9 9 9 9 9 9 9 9 9 8 8 8 7 5 6 7 7 7 6 7 7 6 6 7 8 8 8 7 6 6 7 7 7 8 7 7 7
4 6 7 8 8 8 9 10 10 10 9 10 9 10 9 8 8 7 7 7 6 7 7 7 5 5 5 5 4 5 7 7 7 7 7 6 6 6 6 6 6 7 7 6
6 7 8 8 9 9 8 9 9 10 10 9 9 9 9 8 7 6 6 6 7 7 5 5 5 6 6 4 4 5 6 7 6 6 6 6 6 5 6 6 6 6 6 6
7 8 8 8 9 9 10 9 9 9 9 9 9 9 8 6 6 6 7 6 6 5 3 5 7 8 5 2 3 5 6 6 6 5 5 5 6 5 6 6 6 6 6 6
8 8 8 9 9 10 10 9 9 8 8 7 7 7 6 5 5 5 6 7 7 6 4 7 8 5 2 3 3 4 5 5 5 5 5 5 5 6 6 6 6 6 6 6
8 8 8 9 9 8 9 9 8 8 8 6 7 6 5 4 5 6 7 8 8 7 6 5 4 2 2 2 3 4 4 4 4 4 4 4 4 5 5 5 5 5 6 6
8 6 6 6 6 6 7 6 6 6 6 6 5 4 4 5 6 7 6 7 8 6 5 5 4 4 4 3 3 3 4 4 4 4 3 3 4 4 5 5 7 5 5 5
8 6 6 6 5 5 6 6 6 6 5 6 5 5 5 5 5 5 6 6 6 5 5 5 5 5 5 5 4 4 4 4 4 4 4 4 4 4 4 5 5 5 5 5
Wind_Direction
260 271 263 249 236 235 235 244 256 260 265 215 178 151 153 154 150 145 148 147 147 145 137 135 135 141 143 146 145 147 149 153 146 141 138 138 135 139 140 145 149 142 132 126
255 260 263 257 242 239 240 241 249 257 260 206 156 147 158 160 157 153 154 150 149 144 141 143 143 148 142 141 141 139 142 143 136 134 134 135 137 135 131 128 124 117 113 113
258 256 256 252 247 247 248 245 246 254 236 178 158 134 147 165 157 150 151 146 143 144 145 145 145 143 141 139 140 142 144 145 141 135 131 130 132 125 122 120 115 110 109 108
249 257 256 258 259 253 253 258 257 236 183 136 121 113 129 160 147 141 141 139 138 142 143 142 143 141 137 139 144 149 147 145 144 140 134 128 123 122 121 119 115 115 111 111
245 246 247 253 259 258 251 250 259 260 129 118 120 124 119 95 113 120 124 126 129 132 131 131 135 136 139 143 147 151 148 141 141 140 136 131 127 127 126 124 121 118 118 117
247 253 253 252 273 273 257 238 314 291 150 143 158 180 133 113 106 107 109 112 118 117 114 113 118 132 139 142 141 141 138 134 128 129 132 130 126 119 116 118 118 115 110 108
239 249 255 282 302 274 248 315 28 37 70 117 85 83 109 106 98 102 103 106 107 108 108 106 110 123 130 127 133 133 128 129 125 125 125 124 118 114 114 114 111 108 104 98
232 243 246 338 295 266 68 54 53 65 78 87 93 99 103 102 105 115 118 111 108 105 101 95 98 116 126 125 123 118 121 121 119 117 119 122 120 117 116 117 116 113 109 101
223 235 77 55 63 64 80 77 70 84 92 102 108 116 114 114 121 120 111 107 103 103 98 89 84 103 119 120 124 124 121 121 118 115 108 112 118 122 121 121 121 121 118 113
194 127 98 82 79 63 68 75 76 86 97 103 111 116 118 126 123 112 105 104 99 99 95 88 79 89 101 120 119 118 120 119 118 115 108 100 100 105 112 121 128 127 125 125
215 152 113 83 75 76 85 98 96 90 92 95 102 110 115 118 112 105 97 88 89 91 88 83 79 82 94 114 119 121 119 120 117 114 114 99 80 63 80 77 110 131 131 132
288 51 81 116 128 113 101 102 99 89 84 79 88 104 105 100 94 96 95 89 88 90 95 92 88 84 88 109 124 127 124 124 124 122 116 111 103 82 58 66 71 79 90 103
40 49 80 97 98 94 103 99 92 88 88 89 81 82 91 94 95 95 93 90 93 95 97 98 99 96 92 102 116 124 127 128 126 125 124 123 120 114 102 74 66 71 83 96
66 58 136 144 138 124 116 105 102 97 91 92 93 94 98 102 101 97 93 92 95 97 96 96 99 98 99 107 112 115 117 117 121 125 126 126 124 122 120 119 109 90 80 92
272 234 230 169 139 138 134 135 124 114 105 101 101 104 107 107 104 99 95 95 99 102 99 99 99 95 99 110 114 118 120 121 120 121 122 124 126 125 122 120 118 117 116 105
249 224 201 182 173 163 154 147 132 121 114 109 106 105 105 104 103 99 97 101 108 104 100 101 102 102 105 112 113 115 114 120 122 123 124 128 132 130 128 128 129 132 136 137
238 233 211 198 186 171 149 137 130 123 121 119 116 113 112 111 108 105 99 97 98 99 99 102 108 113 111 114 117 117 119 122 122 123 128 133 133 132 133 135 136 139 140 147
241 246 238 203 173 152 141 131 125 125 125 123 123 123 124 125 124 121 117 113 107 100 97 104 111 117 119 122 120 120 124 131 135 131 132 131 128 129 132 134 139 141 141 155
232 236 212 164 146 137 137 132 126 123 122 124 126 125 125 125 123 124 124 120 117 114 112 112 117 121 120 122 125 131 134 131 126 122 121 123 132 135 136 139 143 146 150 160
205 187 152 133 129 128 127 124 121 121 125 127 126 124 125 126 128 128 124 119 116 120 130 133 134 127 128 129 131 132 128 128 127 128 132 140 139 138 143 147 150 155 160 164
148 133 127 122 118 119 121 124 126 126 127 129 128 127 127 128 132 133 129 120 119 125 130 132 139 138 136 130 137 137 134 135 137 140 143 144 147 150 150 152 157 162 164 170
114 115 116 117 118 118 123 126 128 128 127 130 133 133 133 135 139 134 122 122 131 134 146 151 145 130 127 141 154 144 139 139 141 144 148 151 154 157 159 163 168 170 171 178
112 114 116 117 118 120 121 124 128 130 133 138 142 144 146 147 147 137 128 130 141 147 158 132 120 118 114 182 168 148 142 143 147 154 158 162 165 166 168 174 178 177 178 185
113 118 121 121 122 124 124 127 130 133 137 139 142 146 147 141 134 127 122 126 124 134 121 114 124 126 156 203 171 149 145 149 159 169 172 174 175 175 177 182 184 184 187 192
111 114 118 124 126 127 129 132 130 132 134 132 133 138 140 133 126 121 123 127 130 131 128 137 145 168 223 206 177 157 153 160 172 182 180 178 183 182 180 186 190 193 195 197
102 106 110 112 113 122 130 132 131 132 130 128 129 132 121 110 112 119 130 140 144 146 149 156 175 205 223 215 196 186 176 169 181 198 195 192 198 196 193 195 197 199 200 202
96 98 100 100 105 112 118 122 122 124 128 131 128 122 119 122 128 136 143 149 158 169 173 179 190 206 219 218 207 205 204 198 202 200 197 205 208 211 211 206 207 208 206 209